GSAT0224 (GALILEO 28)

Last updated on Thu Sep 10 2026 00:02:47 GMT+0000 (Coordinated Universal Time)

1 49810U 21116B 26252.35932649 -.00000100 00000+0 00000+0 0 9991 2 49810 57.1274 339.4008 0003174 212.6566 198.2521 1.70476208 29644
UTC large
Height (km)
Speed (km/s)
/
Latitude / Longitude
Inclination (degrees)
Orbital Period (minutes)
Azimuth
Elevation
Range (km)
Doppler Factor

Next 0 passes for location: London (51.5072 / 0.1276)

No passes found over London.
GSAT0224 (GALILEO 28)